Regional Weather Roundup
Issued by NWS

Home | Current Version | Previous Version | Graphics & Text | Print | Product List | Glossary On
Versions: 1 2 3 4 5 6 7 8 9 10 11 12 13 14 15 16 17 18 19 20 21 22 23 24 25 26 27 28 29 30 31 32 33 34 35 36 37 38 39 40 41 42 43 44 45 46 47 48 49 50
000
ASUS43 KFSD 140702
RWRSD

WEATHER ROUNDUP FOR SOUTH DAKOTA
NATIONAL WEATHER SERVICE SIOUX FALLS SD
100 AM CST THU DEC 14 2017

NOTE: "FAIR" INDICATES FEW OR NO CLOUDS BELOW 12,000 FEET WITH NO
SIGNIFICANT WEATHER AND/OR OBSTRUCTIONS TO VISIBILITY.


SDZ001>005-009-010-012>017-140800-
NORTHWEST AND NORTH CENTRAL SOUTH DAKOTA

CITY           SKY/WX    TMP DP  RH WIND       PRES   REMARKS
BUFFALO          N/A     36  27  69 NW18      29.98F
FAITH            N/A     35  28  75 W14       30.02F WCI  26
MOBRIDGE       PTCLDY    29  25  85 NW8       29.98S WCI  21
$$

SDZ012>016-024>037-041>051-057-063-072>074-140800-
SOUTHWEST AND SOUTH CENTRAL SOUTH DAKOTA

CITY           SKY/WX    TMP DP  RH WIND       PRES   REMARKS
RAPID CTY ARPT CLOUDY    34  28  79 N16       30.08F WCI  24
PIERRE         CLOUDY    30  26  85 W6        30.02F WCI  24
CUSTER         CLOUDY    29  17  61 CALM      30.03F
ELLSWORTH AFB  PTCLDY    34  32  93 NW22G28   30.06F WCI  22
PHILIP         CLOUDY    37  27  67 NW14G22   30.06F
PINE RIDGE     CLOUDY    36  25  64 W7        30.10S
SPEARFISH      CLOUDY    36  23  60 W18       30.11S
WINNER         FAIR      28  23  81 SW7       30.04F WCI  21
$$

SDZ004>011-016>023-039-040-140800-
NORTHEAST SOUTH DAKOTA

CITY           SKY/WX    TMP DP  RH WIND       PRES   REMARKS
ABERDEEN       CLOUDY    27  27 100 CALM      29.99F
WATERTOWN      CLOUDY    25  24  96 N7        29.95S WCI  17
BROOKINGS      CLOUDY    26  24  92 CALM      29.98R
SISSETON         N/A     21  18  88 N5        29.99S WCI  15
$$

SDZ017-020-022-023-036>040-048>070-140800-
SOUTHEAST SOUTH DAKOTA

CITY           SKY/WX    TMP DP  RH WIND       PRES   REMARKS
SIOUX FALLS    CLOUDY    30  27  88 CALM      29.98F
HURON          CLOUDY    33  27  78 NW8       29.99F WCI  26
CHAMBERLAIN    MOCLDY    33  28  83 W9        30.03F WCI  25
MITCHELL       CLOUDY    34  26  72 W6        30.01F WCI  29
YANKTON        CLOUDY    34  24  67 NW8       30.02S WCI  27
$$

ABBREVIATIONS USED IN REMARKS
   TC - TEMPERATURE IN CELSIUS
  WCI - WIND CHILL INDEX
   HX - HEAT INDEX
  VSB - VISIBILITY





USA.gov is the U.S. government's official web portal to all federal, state and local government web resources and services.